GOKTURK 1A

Last updated on Tue Oct 15 2024 00:02:25 GMT+0000 (Coordinated Universal Time)

1 41875U 16073A 24288.53605443 .00001726 00000+0 34808-3 0 9997 2 41875 98.1333 181.2550 0001449 83.2286 276.9081 14.62712729419551
UTC large
Height (km)
Speed (km/s)
/
Latitude / Longitude
Inclination (degrees)
Orbital Period (minutes)
Azimuth
Elevation
Range (km)
Doppler Factor

Next 0 passes for location: London (51.5072 / 0.1276)

Sorry there are no passes over London.